Hourly Weather Kozminek

Today, 28 October, Wednesday

Time Temperature Precipitation Wind Pressure Humidity
00:00 +8°C° 0 mm 3 mps 752 mmHg 77%
01:00 +7°C° 0 mm 4 mps 752 mmHg 77%
02:00 +7°C° 0 mm 4 mps 752 mmHg 77%
03:00 +7°C° 0 mm 4 mps 752 mmHg 76%
04:00 +7°C° 0 mm 4 mps 751 mmHg 76%
05:00 +7°C° 0 mm 4 mps 751 mmHg 75%
06:00 +7°C° 0 mm 4 mps 751 mmHg 74%
07:00 +7°C° 0 mm 4 mps 752 mmHg 73%
08:00 +8°C° 0 mm 5 mps 752 mmHg 70%
09:00 +8°C° 0 mm 5 mps 752 mmHg 68%
10:00 +9°C° 0 mm 5 mps 752 mmHg 65%
11:00 +9°C° 0.1 mm 5 mps 752 mmHg 69%
12:00 +10°C° 0.1 mm 4 mps 752 mmHg 72%
13:00 +10°C° 0.1 mm 4 mps 752 mmHg 76%
14:00 +10°C° 0 mm 4 mps 752 mmHg 76%
15:00 +10°C° 0 mm 3 mps 752 mmHg 75%
16:00 +10°C° 0 mm 3 mps 752 mmHg 74%
17:00 +10°C° 0 mm 3 mps 752 mmHg 77%
18:00 +10°C° 0 mm 4 mps 752 mmHg 79%
19:00 +10°C° 0 mm 4 mps 752 mmHg 81%
20:00 +10°C° 0 mm 4 mps 753 mmHg 82%
21:00 +10°C° 0 mm 4 mps 753 mmHg 83%
22:00 +10°C° 0 mm 4 mps 753 mmHg 85%
23:00 +10°C° 0 mm 4 mps 753 mmHg 83%

Tomorrow, 29 October, Thursday

Time Temperature Precipitation Wind Pressure Humidity
00:00 +10°C° 0 mm 4 mps 753 mmHg 82%
01:00 +10°C° 0 mm 4 mps 753 mmHg 80%
02:00 +8°C° 0 mm 4 mps 752 mmHg 81%
03:00 +8°C° 0 mm 4 mps 752 mmHg 81%
04:00 +8°C° 0 mm 4 mps 752 mmHg 81%
05:00 +8°C° 0.3 mm 4 mps 752 mmHg 82%
06:00 +8°C° 0.3 mm 4 mps 752 mmHg 83%
07:00 +10°C° 0.3 mm 4 mps 752 mmHg 84%
08:00 +9°C° 0.1 mm 5 mps 752 mmHg 81%
09:00 +10°C° 0.1 mm 5 mps 752 mmHg 77%
10:00 +11°C° 0.1 mm 6 mps 752 mmHg 73%
11:00 +11°C° 0.3 mm 6 mps 752 mmHg 72%
12:00 +10°C° 0.3 mm 6 mps 752 mmHg 71%
13:00 +10°C° 0.3 mm 5 mps 752 mmHg 70%
14:00 +10°C° 0.1 mm 5 mps 753 mmHg 70%
15:00 +9°C° 0.1 mm 5 mps 753 mmHg 70%
16:00 +10°C° 0.1 mm 4 mps 754 mmHg 70%
17:00 +8°C° 0 mm 4 mps 754 mmHg 73%
18:00 +8°C° 0 mm 4 mps 755 mmHg 76%
19:00 +7°C° 0 mm 4 mps 756 mmHg 78%
20:00 +7°C° 0 mm 4 mps 756 mmHg 79%
21:00 +7°C° 0 mm 4 mps 757 mmHg 80%
22:00 +7°C° 0 mm 4 mps 757 mmHg 81%
23:00 +6°C° 0 mm 4 mps 757 mmHg 83%

Day after tomorrow, 30 October, Friday

Time Temperature Precipitation Wind Pressure Humidity
00:00 +6°C° 0 mm 4 mps 757 mmHg 84%
01:00 +5°C° 0 mm 3 mps 757 mmHg 86%
02:00 +5°C° 0 mm 3 mps 757 mmHg 85%
03:00 +5°C° 0 mm 3 mps 757 mmHg 85%
04:00 +5°C° 0 mm 3 mps 757 mmHg 85%
05:00 +5°C° 0.1 mm 3 mps 757 mmHg 87%
06:00 +7°C° 0.1 mm 3 mps 756 mmHg 88%
07:00 +7°C° 0.1 mm 3 mps 756 mmHg 89%
08:00 +8°C° 1.2 mm 3 mps 756 mmHg 91%
09:00 +7°C° 1.2 mm 4 mps 755 mmHg 93%
10:00 +7°C° 1.2 mm 4 mps 755 mmHg 95%
11:00 +8°C° 1.3 mm 4 mps 755 mmHg 95%
12:00 +9°C° 1.3 mm 5 mps 754 mmHg 95%
13:00 +10°C° 1.3 mm 5 mps 754 mmHg 94%
14:00 +12°C° 0.2 mm 5 mps 754 mmHg 94%
15:00 +11°C° 0.2 mm 6 mps 754 mmHg 93%
16:00 +11°C° 0.2 mm 6 mps 754 mmHg 92%
17:00 +11°C° 0.2 mm 6 mps 755 mmHg 92%
18:00 +11°C° 0.2 mm 6 mps 755 mmHg 92%
19:00 +12°C° 0.2 mm 5 mps 756 mmHg 92%
20:00 +13°C° 0.3 mm 5 mps 756 mmHg 93%
21:00 +13°C° 0.3 mm 5 mps 757 mmHg 94%
22:00 +13°C° 0.3 mm 4 mps 757 mmHg 94%
23:00 +13°C° 0.2 mm 4 mps 757 mmHg 95%

31 October, Saturday

Time Temperature Precipitation Wind Pressure Humidity
00:00 +13°C° 0.2 mm 3 mps 758 mmHg 95%
01:00 +13°C° 0.2 mm 3 mps 758 mmHg 95%
02:00 +12°C° 0 mm 3 mps 759 mmHg 96%
03:00 +13°C° 0 mm 2 mps 759 mmHg 96%
04:00 +13°C° 0 mm 1 mps 759 mmHg 96%
05:00 +13°C° 0 mm 1 mps 760 mmHg 97%
06:00 +13°C° 0 mm 1 mps 760 mmHg 97%
07:00 +13°C° 0 mm 1 mps 760 mmHg 97%
08:00 +13°C° 0 mm 1 mps 760 mmHg 96%
09:00 +13°C° 0 mm 1 mps 760 mmHg 96%
10:00 +13°C° 0 mm 1 mps 761 mmHg 95%
11:00 +14°C° 0 mm 1 mps 761 mmHg 94%
12:00 +14°C° 0 mm 1 mps 761 mmHg 94%
13:00 +14°C° 0 mm 1 mps 761 mmHg 93%
14:00 +14°C° 0 mm 2 mps 760 mmHg 93%
15:00 +14°C° 0 mm 2 mps 760 mmHg 93%
16:00 +14°C° 0 mm 2 mps 760 mmHg 93%
17:00 +14°C° 0 mm 2 mps 760 mmHg 94%
18:00 +13°C° 0 mm 2 mps 760 mmHg 95%
19:00 +12°C° 0 mm 3 mps 760 mmHg 96%
20:00 +12°C° 0 mm 3 mps 760 mmHg 95%
21:00 +11°C° 0 mm 3 mps 760 mmHg 95%
22:00 +11°C° 0 mm 3 mps 760 mmHg 94%
23:00 +11°C° 0 mm 3 mps 760 mmHg 94%

1 November, Sunday

Time Temperature Precipitation Wind Pressure Humidity
00:00 +10°C° 0 mm 4 mps 759 mmHg 93%
01:00 +10°C° 0 mm 4 mps 759 mmHg 92%
02:00 +10°C° 0 mm 3 mps 759 mmHg 92%
03:00 +10°C° 0 mm 3 mps 759 mmHg 92%
04:00 +9°C° 0 mm 3 mps 758 mmHg 92%
05:00 +9°C° 0 mm 3 mps 758 mmHg 92%
06:00 +9°C° 0 mm 3 mps 758 mmHg 93%
07:00 +9°C° 0 mm 3 mps 758 mmHg 94%
08:00 +10°C° 0 mm 3 mps 758 mmHg 90%
09:00 +12°C° 0 mm 3 mps 758 mmHg 86%
10:00 +13°C° 0 mm 4 mps 758 mmHg 82%
11:00 +14°C° 0 mm 4 mps 757 mmHg 78%
12:00 +15°C° 0 mm 4 mps 757 mmHg 74%
13:00 +17°C° 0 mm 4 mps 757 mmHg 70%
14:00 +15°C° 0 mm 4 mps 757 mmHg 73%
15:00 +15°C° 0 mm 4 mps 757 mmHg 75%
16:00 +14°C° 0 mm 3 mps 757 mmHg 78%
17:00 +14°C° 0 mm 3 mps 757 mmHg 80%
18:00 +13°C° 0 mm 3 mps 757 mmHg 83%
19:00 +12°C° 0 mm 3 mps 757 mmHg 86%
20:00 +13°C° 0 mm 4 mps 757 mmHg 85%
21:00 +13°C° 0 mm 4 mps 757 mmHg 84%
22:00 +13°C° 0 mm 4 mps 756 mmHg 83%
23:00 +13°C° 0 mm 4 mps 756 mmHg 83%

2 November, Monday

Time Temperature Precipitation Wind Pressure Humidity
00:00 +12°C° 0 mm 4 mps 756 mmHg 84%
01:00 +12°C° 0 mm 4 mps 756 mmHg 84%
02:00 +12°C° 0 mm 4 mps 756 mmHg 83%
03:00 +12°C° 0 mm 4 mps 756 mmHg 81%
04:00 +12°C° 0 mm 3 mps 755 mmHg 79%
05:00 +12°C° 0 mm 4 mps 756 mmHg 78%
06:00 +12°C° 0 mm 4 mps 756 mmHg 77%
07:00 +12°C° 0 mm 4 mps 756 mmHg 76%
08:00 +13°C° 0 mm 4 mps 756 mmHg 74%
09:00 +14°C° 0 mm 4 mps 756 mmHg 72%
10:00 +14°C° 0 mm 3 mps 756 mmHg 71%
11:00 +14°C° 0 mm 3 mps 756 mmHg 70%
12:00 +14°C° 0 mm 3 mps 757 mmHg 70%
13:00 +14°C° 0 mm 3 mps 757 mmHg 70%
14:00 +14°C° 0 mm 3 mps 757 mmHg 71%
15:00 +14°C° 0 mm 3 mps 757 mmHg 72%
16:00 +14°C° 0 mm 3 mps 757 mmHg 74%
17:00 +14°C° 0 mm 3 mps 757 mmHg 75%
18:00 +13°C° 0 mm 3 mps 757 mmHg 76%
19:00 +14°C° 0 mm 2 mps 757 mmHg 78%
20:00 +14°C° 0 mm 2 mps 757 mmHg 76%
21:00 +13°C° 0 mm 2 mps 758 mmHg 75%
22:00 +13°C° 0 mm 2 mps 758 mmHg 74%
23:00 +13°C° 0 mm 2 mps 758 mmHg 72%
Show more